{"data":{"norad_id":64087,"intl_designator":"2025-108A","name":"2025-108A","alt_names":[],"object_type":"PAYLOAD","status":"ACTIVE","operator":null,"country":"PRC","launch_date":"2025-05-21","launch_site_code":"JSC","launch_vehicle":null,"mission":null,"orbit_class":"UNKNOWN","rcs_meters":null,"size_class":null,"mass_kg":null,"dimensions":null,"purposes":[],"wikipedia_slug":null,"has_3d_model":false,"image_url":null,"decayed_at":null,"tle_current":{"epoch":"2026-05-25T04:23:37.101120Z","epoch_age_seconds":55145,"freshness":"FRESH","line1":"1 64087U 25108A   26145.18306830  .00004648  00000+0  24582-3 0  9993","line2":"2 64087  97.4769 220.2471 0003462  50.5310 309.6228 15.15945918 55835","mean_motion":15.15945918,"eccentricity":0.0003462,"inclination_deg":97.4769,"raan_deg":220.2471,"arg_perigee_deg":50.531,"mean_anomaly_deg":309.6228,"bstar":0.00024582,"rev_number":5583,"period_min":94.990196081652,"perigee_km":515.72084714133,"apogee_km":520.49580740593,"semimajor_km":6896.2453272736,"source":"CELESTRAK","updated_at":"2026-05-25T13:38:04.234705Z"}}}